Regional Weather Roundup
Issued by NWS

Home | Current Version | Previous Version | Text Only | Print | Product List | Glossary Off
Versions: 1 2 3 4 5 6 7 8 9 10 11 12 13 14 15 16 17 18 19 20 21 22 23 24 25 26 27 28 29 30 31 32 33 34 35 36 37 38 39 40 41 42 43 44 45 46 47 48 49 50

000
ASUS43 KDMX 050707
RWRIA

WEATHER ROUNDUP FOR IOWA
NATIONAL WEATHER SERVICE DES MOINES IA
200 AM CDT TUE MAY 05 2015

NOTE: "FAIR" INDICATES FEW OR NO CLOUDS BELOW 12,000 FEET WITH NO
SIGNIFICANT WEATHER AND/OR OBSTRUCTIONS TO VISIBILITY.

* - THESE STATIONS ARE NOT NWS STATIONS...THUS NOT UNDER NWS
QUALITY CONTROL.  THEY ALSO DO NOT REPORT WEATHER SUCH
AS PRECIPITATION OR FOG.

IAZ001>003-012>014-020>022-031>034-043>046-050800-
   NORTHWEST IOWA

CITY           SKY/WX    TMP DP  RH WIND       PRES   REMARKS
CARROLL *      LGT RAIN  55  55 100 E8        30.09F
CHEROKEE *     MOCLDY    54  50  87 NE5       30.11F
DENISON *      RAIN      55  55 100 E10       30.07F
LE MARS *      CLOUDY    52  45  76 NE6       30.12F
ORANGE CITY *  CLEAR     54  37  54 NE6       30.11F
SHELDON *      MOCLDY    52  37  58 NE7       30.11F
SIOUX CITY     CLOUDY    59  50  72 E7        30.10F
SPENCER        MOCLDY    53  40  61 NE9       30.13F
STORM LAKE *   CLOUDY    57  46  67 NE13      30.11F
$$

IAZ055>058-069>071-079>083-090>094-050800-
   SOUTHWEST IOWA

CITY           SKY/WX    TMP DP  RH WIND       PRES   REMARKS
ATLANTIC *     CLOUDY    59  59 100 CALM      30.08S FOG
AUDUBON *      MOCLDY    57  54  88 CALM      30.09F
CLARINDA *     MOCLDY    63  63 100 SW12      30.08F
COUNCIL BLFS * CLOUDY    61  61 100 S10       30.07S
CRESTON *      CLOUDY    63  63 100 SW8       30.08S
HARLAN  *      CLOUDY    57  57 100 CALM      30.11S FOG
LAMONI         CLOUDY    63  59  87 W8        30.05F
RED OAK *      CLOUDY    63  63 100 SW8G15    30.07F
SHENANDOAH *   MOCLDY    63  61  94 SW12      30.07F
$$

IAZ047>049-059>061-072>074-084-050800-
   CENTRAL IOWA

CITY           SKY/WX    TMP DP  RH WIND       PRES   REMARKS
AMES           RAIN      60  59  96 NE3       30.08F FOG
ANKENY *       CLOUDY    63  63 100 W7        30.08R FOG
CHARITON *     LGT RAIN  59  59 100 S5        30.07F
DES MOINES     CLOUDY    64  61  90 NE5       30.07S FOG
GRINNELL*      CLOUDY    61  59  94 E7        30.07R
KNOXVILLE *    LGT RAIN  61  59  94 CALM      30.05F
MARSHALLTOWN   CLOUDY    61  60  97 E9        30.07F FOG
PELLA *        LGT RAIN  59  59 100 S6        30.08F
PERRY *        LGT RAIN  59  59 100 NE6       30.08S
$$

IAZ004>006-015-016-023>025-035-036-050800-
   NORTH CENTRAL IOWA

CITY           SKY/WX    TMP DP  RH WIND       PRES   REMARKS
ALGONA *       CLOUDY    57  43  58 NE9       30.13F
CLARION *      MOCLDY    57  46  67 E10       30.11F
ESTHERVILLE    CLOUDY    51  35  54 NE9       30.14F
FORT DODGE *   CLOUDY    55  46  71 NE7       30.11F
MASON CITY     CLOUDY    56  45  66 NE8       30.14F
FOREST CITY *  CLOUDY    55  39  54 NE5       30.13F
IOWA FALLS *   CLOUDY    59  52  77 NE7       30.11S
$$

IAZ007>011-017>019-026>030-037>042-050>054-066-050800-
   NORTHEAST IOWA

CITY           SKY/WX    TMP DP  RH WIND       PRES   REMARKS
CEDAR RAPIDS   HVY RAIN  61  61 100 E12G21    30.10F FOG
CHARLES CITY * CLOUDY    57  43  58 E9        30.13F
CLINTON *      CLOUDY    59  55  88 E9        30.17S
DECORAH *      CLOUDY    59  41  51 NE8       30.13S
DUBUQUE        CLOUDY    58  57  97 E6        30.15R FOG
MONTICELLO *   LGT RAIN  63  63 100 SE8       30.12F
OELWEIN *      CLOUDY    61  61 100 E10       30.13S FOG
WATERLOO       LGT RAIN  59  57  93 NE7       30.11S
$$

IAZ064-065-067-068-078-050800-
   EAST CENTRAL IOWA

CITY           SKY/WX    TMP DP  RH WIND       PRES   REMARKS
DAVENPORT      LGT RAIN  61  59  93 SE6       30.14S FOG
IOWA CITY      RAIN      62  61  96 NE8       30.11F FOG
MT. PLEASANT * RAIN      63  63 100 CALM      30.09F
MUSCATINE *    LGT RAIN  64  63  94 E7        30.10F
QUAD CITIES    LGT RAIN  62  60  93 E7        30.14R FOG
$$

IAZ062-063-075>077-085>089-095>099-050800-
   SOUTHEAST IOWA

CITY           SKY/WX    TMP DP  RH WIND       PRES   REMARKS
BURLINGTON     LGT RAIN  63  62  97 SE7       30.11R
FAIRFIELD *    LGT RAIN  63  61  94 NE7       30.08F
FORT MADISON * RAIN      63  61  94 SE6       30.10F
KEOKUK *       LGT RAIN  63  63 100 S6        30.11F
OSKALOOSA *    LGT RAIN  61  57  88 CALM      30.07F
CENTERVILLE *  PTCLDY    59  59 100 SE3       30.09F
OTTUMWA        LGT RAIN  60  59  96 SE5       30.06F
WASHINGTON *   LGT RAIN  63  63 100 E5        30.08F
$$

ABBREVIATIONS USED IN REMARKS
   TC - TEMPERATURES IN CELSIUS
  WCI - WIND CHILL INDEX
   HX - HEAT INDEX
  VSB - VISIBILITY
$$



USA.gov is the U.S. government's official web portal to all federal, state and local government web resources and services.